Regional Weather Roundup
Issued by NWS

Home | Current Version | Previous Version | Graphics & Text | Print | Product List | Glossary On
Versions: 1 2 3 4 5 6 7 8 9 10 11 12 13 14 15 16 17 18 19 20 21 22 23 24 25 26 27 28 29 30 31 32 33 34 35 36 37 38 39 40 41 42 43 44 45 46 47 48 49 50
000
ASUS43 KOAX 240802
RWRNE

WEATHER ROUNDUP FOR NEBRASKA
NATIONAL WEATHER SERVICE OMAHA NE
300 AM CDT TUE MAY 24 2016

NOTES: SATELLITE DATA IS BEING USED TO AUGMENT CLOUD COVER ABOVE
       12000 FEET.
       "FAIR" INDICATES FEW OR NO CLOUDS BELOW 12,000 FEET WITH NO
       SIGNIFICANT WEATHER AND/OR OBSTRUCTIONS TO VISIBILITY.

  * THESE STATIONS DO NOT REPORT WEATHER SUCH AS RAIN...SNOW OR FOG.

NEZ001>004-019>022-054>056-240900-
NEBRASKA PANHANDLE

CITY           SKY/WX    TMP DP  RH WIND       PRES   REMARKS
SCOTTSBLUFF    CLEAR     41  39  93 N5        29.90F
ALLIANCE       CLEAR     36  35  96 SW3       29.89S
CHADRON        CLEAR     43  39  86 W9        29.85S
SIDNEY         MOCLDY    43  40  89 W7        29.90S
$$

NEZ057>060-069>072-079>082-240900-
SOUTHWEST NEBRASKA

CITY           SKY/WX    TMP DP  RH WIND       PRES   REMARKS
NORTH PLATTE   CLEAR     50  47  89 S6        29.86R
IMPERIAL       LGT RAIN  55  47  74 NW12G26   29.88R
LEXINGTON      CLOUDY    52  48  87 S5        29.85R
MCCOOK         CLOUDY    55  47  74 CALM      29.83R
$$

NEZ005>010-023>029-035>040-094-240900-
NORTH CENTRAL NEBRASKA

CITY           SKY/WX    TMP DP  RH WIND       PRES   REMARKS
VALENTINE      CLEAR     50  42  74 W9        29.81F
AINSWORTH      CLEAR     54  44  70 W8        29.80F
BROKEN BOW     CLEAR     48  45  89 CALM      29.84R
ORD            FOG       53  53 100 S3        29.81R VSB 1/4
$$

NEZ041-046>049-061>064-073>077-083>087-240900-
SOUTH CENTRAL NEBRASKA

CITY           SKY/WX    TMP DP  RH WIND       PRES   REMARKS
GRAND ISLAND   CLOUDY    61  59  93 S8        29.84R
AURORA         CLOUDY    60  60  99 S6        29.84R
HASTINGS       CLOUDY    62  59  90 S8        29.83R
HEBRON         CLOUDY    61  56  85 N3        29.79F
HOLDREGE       CLOUDY    62  60  94 SE8       29.83S
KEARNEY *      CLOUDY    61  57  88 NW9       29.86R
YORK           CLOUDY    59  59 100 SE6       29.83S
$$

NEZ011>018-030>034-042>045-240900-
NORTHEAST NEBRASKA

CITY           SKY/WX    TMP DP  RH WIND       PRES   REMARKS
NORFOLK        CLEAR     58  55  90 S7        29.81R
ALBION         PTCLDY    57  55  91 CALM      29.83R
BLAIR          CLOUDY    61  59  94 S8        29.84R
FREMONT        CLOUDY    59  58  99 SE7       29.84R
TEKAMAH        PTCLDY    61  59  93 SE10      29.82S
$$

NEZ050>053-065>068-078-088>093-240900-
SOUTHEAST NEBRASKA

CITY           SKY/WX    TMP DP  RH WIND       PRES   REMARKS
LINCOLN        CLOUDY    60  58  92 SE5       29.83S
OMAHA EPPLEY   CLOUDY    62  58  86 S5        29.85R
BEATRICE       CLOUDY    65  62  89 S10       29.82F
FALLS CITY     CLOUDY    67  61  81 SW9       29.86R
NEBRASKA CITY  CLOUDY    63  63 100 S7        29.84F
PLATTSMOUTH    CLOUDY    64  61  93 S6        29.86R
$$

NEZ044-045-051>053-067-240900-
OMAHA AREA

CITY           SKY/WX    TMP DP  RH WIND       PRES   REMARKS
OMAHA EPPLEY   CLOUDY    62  58  86 S5        29.85R
BLAIR          CLOUDY    61  59  94 S8        29.84R
FREMONT        CLOUDY    59  58  99 SE7       29.84R
PLATTSMOUTH    CLOUDY    64  61  93 S6        29.86R
WAHOO          FAIR      59  58  95 SE3       29.83R
$$



USA.gov is the U.S. government's official web portal to all federal, state and local government web resources and services.